#timestamp,LO_Frequency,Hit,StdDev 
1657368015.5,286047002.0,N
1657368035.4,286047003.5,N
1657368055.2,286047002.1,N
1657368075.0,286047000.1,N
1657368075.9,286047000.1,N
1657368095.8,286046999.7,N
1657368115.6,286047000.6,N
1657368135.4,286047002.5,N
1657368155.3,286047005.3,N
1657368175.1,286047007.1,Y
1657368195.9,286047007.2,P
1657368215.7,286047007.2,N
1657368235.5,286047003.8,N
1657368255.4,286047003.2,N
1657368275.2,286047006.0,N
1657368295.0,286047003.0,N
1657368295.9,286047003.0,N
1657368315.8,286047003.0,N
1657368335.6,286047003.4,N
1657368355.5,286047003.9,N
1657368375.3,286047006.6,Y
1657368395.1,286047000.2,P
1657368415.9,286047002.1,N
1657368435.7,286047002.7,N
1657368455.6,286047000.2,N
1657368475.4,286047000.9,N
1657368495.2,286047002.5,N
1657368515.1,286047002.0,N
1657368516.0,286047002.0,N
1657368535.8,286047000.5,N
1657368555.7,286047002.1,N
1657368575.5,286047003.3,N
1657368595.3,286047003.5,N
1657368615.2,286047003.5,N
1657368635.0,286047001.9,N
1657368635.9,286047001.9,N
1657368655.7,286046999.7,N
1657368675.6,286047004.1,Y
1657368695.4,286047001.6,P
1657368715.3,286047002.2,P
1657368735.1,286046998.1,P
1657368755.8,286046995.6,N
1657368775.7,286046996.8,N
1657368795.5,286046996.6,N
1657368815.4,286047001.1,N
1657368835.2,286047001.2,N
1657368855.0,286046995.0,N
1657368855.9,286046995.0,N
1657368875.8,286046993.4,N
1657368895.6,286046993.5,N
1657368915.4,286046993.8,N
1657368935.3,286046995.5,N
1657368955.1,286046997.9,N
1657368975.9,286047000.7,N
1657368995.7,286046999.6,N
1657369015.5,286046997.5,N
1657369035.4,286046997.9,N
1657369055.2,286046997.9,N
1657369075.0,286046999.2,N
1657369075.9,286046999.2,N
1657369095.8,286046999.1,N
1657369115.6,286046999.1,N
1657369135.5,286046998.7,N
1657369155.3,286047001.9,N
1657369175.1,286047001.7,N
1657369195.9,286047004.4,N
1657369215.7,286046999.8,N
1657369235.5,286047000.0,N
1657369255.4,286047002.5,N
1657369275.2,286047000.5,N
1657369325.1,286047001.5,E
1657369335.0,286047002.5,N
1657369335.9,286047002.5,P
1657369355.7,286047000.6,P
1657369375.6,286047000.9,N
1657369395.4,286046999.5,N
1657369415.3,286046999.2,N
1657369435.1,286046996.8,N
1657369436.0,286046996.8,N
1657369455.8,286046993.8,N
1657369475.7,286046998.0,N
1657369495.5,286046999.1,N
1657369515.3,286046997.2,N
1657369535.2,286047000.7,N
1657369555.0,286046996.2,N
1657369555.9,286046996.2,N
1657369575.8,286046995.9,N
1657369595.6,286046994.8,N
1657369615.4,286046992.3,Y
1657369635.3,286046997.5,P
1657369655.1,286046999.1,N
1657369675.8,286046998.6,N
1657369695.7,286047000.3,N
1657369715.5,286047002.2,N
1657369735.4,286047000.1,N
1657369755.2,286047001.0,N
1657369775.0,286047000.4,N
1657369775.9,286047000.4,N
1657369795.8,286047000.1,N
1657369815.6,286047001.5,N
1657369835.4,286047004.2,Y
1657369855.3,286047001.7,P
1657369875.1,286047003.1,P
1657369895.9,286047001.4,N
1657369915.7,286047002.6,N
1657369935.5,286047001.3,N
1657369955.4,286047001.5,N
1657369975.2,286047001.6,N
1657369995.0,286046999.3,N
1657369996.0,286046999.3,N
1657370015.8,286046994.9,Y
1657370035.6,286046995.5,P
1657370055.5,286046993.9,N
1657370075.3,286046994.4,N
1657370095.1,286046998.0,N
1657370115.9,286046996.0,N
1657370135.7,286046997.9,N
1657370155.6,286046997.1,N
1657370175.4,286046997.4,N
1657370195.2,286046997.9,N
1657370215.1,286046997.8,N
1657370216.0,286046997.8,N
1657370235.8,286046997.7,N
1657370255.6,286046997.5,N
1657370275.5,286046997.6,N
1657370295.3,286046996.7,N
1657370315.2,286046999.2,N
1657370335.9,286046997.9,N
1657370355.7,286046994.9,Y
1657370375.6,286047001.4,P
1657370395.4,286047001.8,N
1657370415.2,286047003.0,N
1657370435.1,286047001.3,N
1657370436.0,286047001.3,N
1657370455.8,286047002.1,N
1657370475.7,286047002.3,N
1657370495.5,286047000.4,N
1657370515.3,286047000.9,N
1657370535.2,286047002.6,N
1657370555.0,286047001.6,N
1657370555.9,286047001.6,N
1657370575.8,286047005.5,Y
1657370625.6,286046999.8,E
1657370635.5,286047001.6,N
1657370655.4,286046998.2,P
1657370675.2,286046997.4,N
1657370695.1,286046999.1,N
1657370696.0,286046999.1,N
1657370715.8,286046998.8,N
1657370735.6,286047001.2,N
1657370755.5,286046999.6,N
1657370775.3,286046999.3,N
1657370795.1,286046998.1,N
1657370815.9,286047000.4,N
1657370835.7,286046999.8,N
1657370855.6,286047000.4,N
1657370875.4,286047000.6,N
1657370895.2,286047002.1,N
1657370915.1,286047002.6,N
1657370916.0,286047002.6,N
1657370935.8,286047002.2,N
1657370955.7,286047000.2,N
1657370975.5,286047000.2,N
1657370995.3,286047002.6,N
1657371015.2,286047002.6,N
1657371035.0,286047002.3,N
1657371035.9,286047002.3,N
1657371055.7,286047001.0,N
1657371075.6,286046996.5,N
1657371095.4,286046999.5,N
1657371115.3,286046999.4,N
1657371135.1,286046996.8,N
1657371136.0,286046996.8,N
1657371155.8,286046995.0,N
1657371175.7,286046997.3,N
1657371195.5,286046996.9,N
1657371215.3,286046996.2,N
1657371235.2,286046996.3,N
1657371255.0,286046993.5,N
1657371255.9,286046993.5,N
1657371275.8,286046996.3,N
1657371295.6,286046997.4,N
1657371315.4,286046997.6,N
1657371335.3,286046997.6,N
1657371355.1,286046995.3,N
1657371375.8,286046998.0,N
1657371395.7,286046994.9,N
1657371415.5,286046997.6,N
1657371435.4,286046993.7,N
1657371455.2,286046994.3,N
1657371475.0,286046990.2,Y
1657371475.9,286046990.2,P
1657371495.8,286046997.4,N
1657371515.6,286046996.0,N
1657371535.5,286046994.5,N
1657371555.3,286046992.2,N
1657371575.1,286046993.5,N
1657371595.9,286046992.1,Y
